| time (UTC) | temp F | wind direction | speed knots | gust knots | rain 1hr in | rain 24hr in | rain mn in | humidity % | barometer mb |
| 20260503130528 | 61 | 70 | 1.7 | 6.1 | 0.00 | 0.00 | 0.00 | 34 | 1015.8 |
| 20260503110539 | 59 | 47 | 1.7 | 6.1 | 0.00 | 0.00 | 0.00 | 35 | 1016.3 |
| 20260503081530 | 56 | 67 | 1.7 | 6.1 | 0.00 | 0.00 | 0.00 | 39 | 1017.0 |
| 20260503080546 | 57 | 99 | 4.3 | 7.0 | 0.00 | 0.00 | 0.00 | 38 | 1017.1 |
| 20260503072529 | 56 | 79 | 2.6 | 5.2 | 0.00 | 0.00 | 0.00 | 42 | 1016.9 |
| 20260503071526 | 55 | 61 | 3.5 | 6.1 | 0.00 | 0.00 | 0.00 | 44 | 1016.8 |
| 20260503070522 | 55 | 44 | 3.5 | 6.1 | 0.00 | 0.00 | 0.00 | 42 | 1016.9 |
| 20260503054529 | 50 | 122 | 0.0 | 0.9 | 0.00 | 0.00 | 0.00 | 69 | 1016.7 |
| 20260503053525 | 50 | 230 | 0.0 | 0.0 | 0.00 | 0.00 | 0.00 | 69 | 1016.7 |
| 20260503052541 | 50 | 210 | 0.0 | 0.0 | 0.00 | 0.00 | 0.00 | 68 | 1016.6 |
| 20260503051517 | 50 | 205 | 0.0 | 0.0 | 0.00 | 0.00 | 0.00 | 71 | 1016.7 |
| 20260503050533 | 48 | 149 | 0.0 | 0.0 | 0.00 | 0.00 | 0.00 | 76 | 1016.7 |
| 20260503045529 | 47 | 202 | 0.0 | 0.0 | 0.00 | 0.00 | 0.00 | 79 | 1016.7 |
| 20260503044525 | 47 | 236 | 1.7 | 2.6 | 0.00 | 0.00 | 0.00 | 80 | 1016.5 |
| 20260503043521 | 47 | 245 | 0.9 | 2.6 | 0.00 | 0.00 | 0.00 | 79 | 1016.5 |
| 20260503042517 | 46 | 293 | 0.9 | 2.6 | 0.00 | 0.00 | 0.00 | 84 | 1016.6 |
| 20260503041532 | 45 | 238 | 0.0 | 0.9 | 0.00 | 0.00 | 0.00 | 85 | 1016.4 |
| 20260503040529 | 45 | 290 | 0.9 | 1.7 | 0.00 | 0.00 | 0.00 | 85 | 1016.3 |
| 20260503035525 | 44 | 8 | 0.0 | 0.9 | 0.00 | 0.00 | 0.00 | 86 | 1016.1 |
| 20260503034520 | 44 | 285 | 0.0 | 0.9 | 0.00 | 0.00 | 0.00 | 86 | 1016.0 |
| 20260503033517 | 44 | 256 | 0.0 | 0.0 | 0.00 | 0.00 | 0.00 | 85 | 1015.9 |
| 20260503032553 | 45 | 257 | 0.0 | 0.0 | 0.00 | 0.00 | 0.00 | 85 | 1015.7 |
| 20260503031529 | 45 | 241 | 0.0 | 0.0 | 0.00 | 0.00 | 0.00 | 84 | 1015.6 |
| 20260503030525 | 45 | 269 | 0.0 | 0.9 | 0.00 | 0.00 | 0.00 | 83 | 1015.6 |
| 20260503025521 | 46 | 279 | 0.0 | 0.0 | 0.00 | 0.00 | 0.00 | 84 | 1015.6 |
| 20260503024517 | 46 | 236 | 0.0 | 0.0 | 0.00 | 0.00 | 0.00 | 83 | 1015.7 |
| 20260503023533 | 46 | 296 | 1.7 | 2.6 | 0.00 | 0.00 | 0.00 | 81 | 1015.8 |
| 20260503022529 | 46 | 36 | 0.0 | 0.9 | 0.00 | 0.00 | 0.00 | 82 | 1015.8 |
| 20260503021525 | 45 | 205 | 0.0 | 0.0 | 0.00 | 0.00 | 0.00 | 84 | 1015.8 |
| 20260503020541 | 45 | 240 | 0.0 | 0.9 | 0.00 | 0.00 | 0.00 | 84 | 1015.9 |